Location: Newark
(13.8117°N, 3.6025°W)
Time: 11:00:06
(UTC+00:00)

Vanguard 2 - Pass Details

Date: 26 August 2019
Orbit: 554 x 2937 km, 32.9° (Epoch: 18 September)

Event Time Altitude Azimuth Distance (km) Brightness Sun altitude
Rises 14:46:58 0° 312° (NW) 3,769 11.5 53.0°
Reaches altitude 10° 14:49:47 10° 326° (NW) 3,108 11.1 52.4°
Maximum altitude 14:56:24 27° 22° (NNE) 2,708 10.5 50.8°
Drops below altitude 10° 15:06:07 10° 74° (ENE) 4,690 11.2 48.4°
Sets 15:11:34 0° 85° (E) 6,101 11.7 47.1°
